Location: Helsinki
(60.1699°N, 24.9384°E)
Time: 10:44:23
(UTC+02:00)

Vanguard 2 Rocket - Pass Details

Date: 24 September 2023
Orbit: 552 x 3312 km, 32.9° (Epoch: 05 December)

Event Time Altitude Azimuth Distance (km) Brightness Sun altitude
Rises 12:18:19 0° 199° (SSW) 6,929 12.2 28.5°
Reaches altitude 10° 12:25:16 10° 183° (S) 6,165 12.6 28.7°
Maximum altitude 12:36:07 18° 150° (SSE) 5,581 12.5 29.0°
Drops below altitude 10° 12:46:37 10° 116° (ESE) 5,963 11.6 29.2°
Sets 12:53:03 0° 100° (E) 6,629 11.5 29.3°
